Change the Weather History Date:

Thursday, September 13, 2012

  Actual Average Record
Temperature  
Mean Temperature 55 °F -  
Max Temperature 69 °F 69 °F 83 °F (1952)
Min Temperature 41 °F 45 °F 23 °F (1970)
Degree Days  
Heating Degree Days 10    
Growing Degree Days 5 (Base 50)    
Moisture  
Dew Point 29 °F    
Average Humidity 38    
Maximum Humidity 76    
Minimum Humidity 18    
Precipitation  
Precipitation 0.00 in - - ()
Sea Level Pressure  
Sea Level Pressure 30.29 in    
Wind  
Wind Speed 5 mph (NW)    
Max Wind Speed 17 mph    
Max Gust Speed 24 mph    
Visibility 10 miles    
Events      
Averages and records for this station are not official NWS values.
T = Trace of Precipitation, MM = Missing Value Source: NWS Daily Summary

Daily Weather History Graph

Daily Weather History Graph

Search for Another Location

Airport or City:

Trip Planner

Search our weather history database for the weather conditions in past years. The results will help you decide how hot, cold, wet, or windy it might be!

Date:

Astronomy

Sep. 13, 2012 Rise Set
Actual Time 6:59 AM CDT 7:38 PM CDT
Civil Twilight 6:28 AM CDT 8:08 PM CDT
Nautical Twilight 5:52 AM CDT 8:45 PM CDT
Astronomical Twilight 5:14 AM CDT 9:22 PM CDT
Moon 4:12 AM CDT (9/13) 6:06 PM CDT (9/13)
Length of Visible Light 13h 40m
Length of Day
12h 38m
Waning Crescent, 7% of the Moon is Illuminated
Sep 13
Waning Crescent
Sep 15
New
Sep 22
First Quarter
Sep 29
Full
Oct 8
Last Quarter

Hourly Weather History & Observations

Time (CDT) Temp. Dew Point Humidity Pressure Visibility Wind Dir Wind Speed Gust Speed Precip Events Conditions
12:13 AM 53.6 °F 21.2 °F 28% 30.24 in 7.0 mi WNW 4.6 mph - N/A   Clear
12:33 AM 53.6 °F 23.0 °F 30% 30.24 in 7.0 mi West 5.8 mph - N/A   Clear
12:52 AM 51.8 °F 23.0 °F 33% 30.24 in 7.0 mi WNW 4.6 mph - N/A   Clear
1:13 AM 51.8 °F 24.8 °F 35% 30.24 in 7.0 mi WNW 5.8 mph - N/A   Clear
1:33 AM 51.8 °F 24.8 °F 35% 30.24 in 7.0 mi West 5.8 mph - N/A   Clear
1:52 AM 51.8 °F 23.0 °F 33% 30.24 in 7.0 mi West 4.6 mph - N/A   Clear
2:13 AM 51.8 °F 30.2 °F 44% 30.25 in 10.0 mi West 3.5 mph - N/A   Clear
2:32 AM 50.0 °F 28.4 °F 43% 30.25 in 10.0 mi West 3.5 mph - N/A   Clear
2:53 AM 51.8 °F 26.6 °F 38% 30.26 in 10.0 mi Calm Calm - N/A   Clear
3:32 AM 46.4 °F 28.4 °F 50% 30.27 in 10.0 mi Calm Calm - N/A   Clear
3:53 AM 44.6 °F 30.2 °F 57% 30.27 in 10.0 mi Calm Calm - N/A   Clear
4:13 AM 46.4 °F 30.2 °F 53% 30.27 in 10.0 mi Calm Calm - N/A   Clear
4:32 AM 44.6 °F 32.0 °F 61% 30.28 in 10.0 mi Calm Calm - N/A   Clear
4:53 AM 44.6 °F 32.0 °F 61% 30.28 in 10.0 mi Calm Calm - N/A   Clear
5:13 AM 42.8 °F 32.0 °F 66% 30.29 in 10.0 mi Calm Calm - N/A   Clear
5:32 AM 42.8 °F 32.0 °F 66% 30.29 in 10.0 mi Calm Calm - N/A   Clear
5:53 AM 44.6 °F 37.4 °F 76% 30.29 in 10.0 mi Calm Calm - N/A   Clear
6:13 AM 42.8 °F 33.8 °F 70% 30.30 in 10.0 mi Calm Calm - N/A   Clear
6:32 AM 41.0 °F 33.8 °F 76% 30.30 in 10.0 mi Calm Calm - N/A   Clear
6:53 AM 44.6 °F 32.0 °F 61% 30.31 in 10.0 mi Calm Calm - N/A   Clear
7:13 AM 42.8 °F 33.8 °F 70% 30.31 in 10.0 mi Calm Calm - N/A   Clear
7:32 AM 44.6 °F 33.8 °F 66% 30.31 in 10.0 mi Calm Calm - N/A   Clear
7:53 AM 44.6 °F 33.8 °F 66% 30.31 in 10.0 mi Calm Calm - N/A   Clear
8:13 AM 46.4 °F 35.6 °F 66% 30.31 in 10.0 mi Calm Calm - N/A   Clear
8:32 AM 51.8 °F 32.0 °F 47% 30.31 in 10.0 mi West 3.5 mph - N/A   Clear
8:53 AM 53.6 °F 30.2 °F 41% 30.31 in 10.0 mi WSW 3.5 mph - N/A   Clear
9:13 AM 53.6 °F 32.0 °F 44% 30.32 in 10.0 mi Calm Calm - N/A   Clear
9:32 AM 55.4 °F 32.0 °F 41% 30.32 in 10.0 mi SSW 4.6 mph - N/A   Clear
9:53 AM 55.4 °F 33.8 °F 44% 30.32 in 10.0 mi SSW 3.5 mph - N/A   Clear
10:13 AM 57.2 °F 33.8 °F 41% 30.32 in 10.0 mi Calm Calm - N/A   Clear
10:33 AM 60.8 °F 30.2 °F 31% 30.33 in 10.0 mi NW 5.8 mph - N/A   Clear
10:52 AM 60.8 °F 30.2 °F 31% 30.33 in 10.0 mi West 4.6 mph - N/A   Clear
11:13 AM 64.4 °F 28.4 °F 26% 30.33 in 10.0 mi NW 9.2 mph - N/A   Clear
11:33 AM 64.4 °F 26.6 °F 24% 30.33 in 10.0 mi West 9.2 mph - N/A   Clear
11:53 AM 66.2 °F 26.6 °F 23% 30.32 in 10.0 mi NNW 10.4 mph - N/A   Clear
12:13 PM 66.2 °F 24.8 °F 21% 30.32 in 10.0 mi NW 11.5 mph 18.4 mph N/A   Clear
12:33 PM 66.2 °F 23.0 °F 19% 30.33 in 10.0 mi WNW 16.1 mph 20.7 mph N/A   Clear
12:53 PM 66.2 °F 24.8 °F 21% 30.32 in 10.0 mi NW 17.3 mph 20.7 mph N/A   Clear
1:13 PM 68.0 °F 23.0 °F 18% 30.31 in 10.0 mi WNW 12.7 mph 19.6 mph N/A   Clear
1:33 PM 66.2 °F 23.0 °F 19% 30.31 in 10.0 mi West 17.3 mph 24.2 mph N/A   Clear
1:53 PM 68.0 °F 23.0 °F 18% 30.31 in 10.0 mi West 12.7 mph 21.9 mph N/A   Clear
2:13 PM 68.0 °F 23.0 °F 18% 30.30 in 10.0 mi West 11.5 mph 16.1 mph N/A   Clear
2:33 PM 68.0 °F 24.8 °F 20% 30.29 in 10.0 mi West 11.5 mph 16.1 mph N/A   Clear
2:53 PM 68.0 °F 24.8 °F 20% 30.29 in 10.0 mi West 10.4 mph - N/A   Clear
3:13 PM 68.0 °F 24.8 °F 20% 30.29 in 10.0 mi West 8.1 mph 16.1 mph N/A   Clear
3:33 PM 68.0 °F 23.0 °F 18% 30.28 in 10.0 mi West 6.9 mph - N/A   Clear
3:53 PM 68.0 °F 24.8 °F 20% 30.27 in 10.0 mi West 5.8 mph 18.4 mph N/A   Clear
4:13 PM 68.0 °F 26.6 °F 21% 30.27 in 10.0 mi West 8.1 mph - N/A   Clear
4:33 PM 69.8 °F 26.6 °F 20% 30.27 in 10.0 mi West 5.8 mph - N/A   Clear
4:53 PM 68.0 °F 26.6 °F 21% 30.27 in 10.0 mi NW 11.5 mph 16.1 mph N/A   Clear
5:13 PM 68.0 °F 23.0 °F 18% 30.27 in 10.0 mi NW 10.4 mph - N/A   Clear
5:33 PM 68.0 °F 23.0 °F 18% 30.27 in 10.0 mi WNW 8.1 mph - N/A   Clear
5:53 PM 68.0 °F 26.6 °F 21% 30.27 in 10.0 mi NNW 8.1 mph - N/A   Clear
6:13 PM 66.2 °F 30.2 °F 26% 30.27 in 10.0 mi NNW 8.1 mph - N/A   Clear
6:33 PM 64.4 °F 30.2 °F 28% 30.27 in 10.0 mi North 8.1 mph - N/A   Clear
6:53 PM 64.4 °F 30.2 °F 28% 30.27 in 10.0 mi North 4.6 mph - N/A   Clear
7:13 PM 64.4 °F 32.0 °F 30% 30.28 in 10.0 mi NNE 6.9 mph - N/A   Clear
7:33 PM 62.6 °F 32.0 °F 32% 30.27 in 10.0 mi NE 9.2 mph - N/A   Clear
7:53 PM 62.6 °F 32.0 °F 32% 30.28 in 10.0 mi NNE 9.2 mph - N/A   Clear
8:13 PM 60.8 °F 32.0 °F 34% 30.29 in 10.0 mi NE 9.2 mph - N/A   Clear
8:33 PM 60.8 °F 32.0 °F 34% 30.30 in 10.0 mi NE 11.5 mph - N/A   Clear
8:53 PM 60.8 °F 32.0 °F 34% 30.31 in 10.0 mi NE 11.5 mph - N/A   Clear
9:13 PM 60.8 °F 32.0 °F 34% 30.32 in 10.0 mi NE 13.8 mph 17.3 mph N/A   Clear
9:33 PM 59.0 °F 32.0 °F 36% 30.32 in 10.0 mi NE 12.7 mph 17.3 mph N/A   Clear
9:53 PM 59.0 °F 32.0 °F 36% 30.32 in 10.0 mi ENE 12.7 mph - N/A   Clear
10:13 PM 59.0 °F 32.0 °F 36% 30.33 in 10.0 mi NE 8.1 mph - N/A   Clear
10:33 PM 57.2 °F 32.0 °F 38% 30.33 in 10.0 mi ENE 9.2 mph - N/A   Clear
10:53 PM 57.2 °F 33.8 °F 41% 30.32 in 10.0 mi ENE 5.8 mph - N/A   Clear
11:13 PM 55.4 °F 33.8 °F 44% 30.32 in 10.0 mi SE 4.6 mph - N/A   Clear
11:33 PM 55.4 °F 33.8 °F 44% 30.32 in 10.0 mi ESE 3.5 mph - N/A   Clear
11:53 PM 51.8 °F 33.8 °F 50% 30.32 in 10.0 mi Calm Calm - N/A   Clear